Regional Weather Roundup
Issued by NWS Little Rock, AR

Home | Current Version | Previous Version | Graphics & Text | Print | Product List | Glossary On
Versions: 1 2 3 4 5 6 7 8 9 10 11 12 13 14 15 16 17 18 19 20 21 22 23 24 25 26 27 28 29 30 31 32 33 34 35 36 37 38 39 40 41 42 43 44 45 46 47 48 49 50
000
ASUS44 KLZK 251605
RWRLZK

WEATHER ROUNDUP FOR ARKANSAS
NATIONAL WEATHER SERVICE LITTLE ROCK AR
1000 AM CST SAT FEB 25 2017

NOTE: "FAIR" INDICATES FEW OR NO CLOUDS BELOW 12,000 FEET WITH NO
SIGNIFICANT WEATHER AND/OR OBSTRUCTIONS TO VISIBILITY.

ARZ001-003-010-029-251700-
NORTHWEST ARKANSAS

CITY           SKY/WX    TMP DP  RH WIND       PRES   REMARKS
FAYETTEVILLE   SUNNY     32  19  58 NW12      30.19R WCI  23
FORT SMITH     SUNNY     37  17  44 NW13      30.24R
HARRISON       SUNNY     32  17  54 NW13G21   30.14R WCI  22
BENTONVILLE    SUNNY     30  18  59 NW9       30.19R WCI  22
ROGERS         SUNNY     32  20  61 W9        30.18R WCI  24
SILOAM SPGS    SUNNY     32  18  55 NW13      30.20R WCI  22
HIGHFILL       SUNNY     33  18  53 NW10      30.18R WCI  25
SPRINGDALE     SUNNY     30  19  64 W12       30.20R WCI  21
$$

ARZ004-005-016-251700-
NORTH CENTRAL ARKANSAS

CITY           SKY/WX    TMP DP  RH WIND       PRES   REMARKS
BATESVILLE     SUNNY     36  18  48 NW8G16    30.16S
FLIPPIN        SUNNY     34  16  47 NW10G17   30.14R WCI  26
MTN HOME       SUNNY     33  19  56 NW8       30.14R WCI  26
$$

ARZ040-041-251700-
WEST CENTRAL ARKANSAS

CITY           SKY/WX    TMP DP  RH WIND       PRES   REMARKS
MENA           MOSUNNY   41  19  42 N8        30.18S
MOUNT IDA      SUNNY     39  18  42 VRB7      30.15S
$$

ARZ009-017-025-026-028-251700-
NORTHEAST ARKANSAS

CITY           SKY/WX    TMP DP  RH WIND       PRES   REMARKS
CORNING        FAIR      36  19  51 N14G20    30.14R
JONESBORO      SUNNY     37  19  48 N13G18    30.14R
NEWPORT        SUNNY     36  18  48 N16       30.17R
WALNUT RIDGE   SUNNY     37  16  41 NW16      30.14R
BLYTHEVILLE    SUNNY     39  22  50 NW16G24   30.13R
$$

ARZ022-023-033-042-044-251700-
CENTRAL ARKANSAS

CITY           SKY/WX    TMP DP  RH WIND       PRES   REMARKS
LITTLE ROCK    SUNNY     40  20  44 NW9       30.18R
JACKSONVILLE   SUNNY     39  17  40 NW8       30.17R
SEARCY         SUNNY     39  20  46 N10       30.18R
HOT SPRINGS    SUNNY     42  20  41 NW12      30.18R
RUSSELLVILLE   SUNNY     38  18  44 NW10      30.18R
CLINTON        FAIR      37  16  41 NW13G21   30.16R
$$

ARZ036-251700-
EAST ARKANSAS

CITY           SKY/WX    TMP DP  RH WIND       PRES   REMARKS
WEST MEMPHIS   MOSUNNY   38  24  57 NW10G20   30.14R
$$

ARZ050-053-066-070-073-251700-
SOUTHWEST ARKANSAS

CITY           SKY/WX    TMP DP  RH WIND       PRES   REMARKS
ARKADELPHIA    FAIR      41  23  48 VRB5      30.21S
CAMDEN         SUNNY     45  19  36 N7        30.21R
TEXARKANA      SUNNY     41  23  48 N7        30.22R
EL DORADO      SUNNY     43  24  47 N8        30.20R
DE QUEEN       SUNNY     42  23  46 NE6       30.21R
$$

ARZ056-057-069-251700-
SOUTHEAST ARKANSAS

CITY           SKY/WX    TMP DP  RH WIND       PRES   REMARKS
PINE BLUFF     SUNNY     40  22  48 N8        30.19R
STUTTGART      SUNNY     39  18  41 NW10      30.18R
MONTICELLO     SUNNY     44  20  38 N8        30.17R

$$





USA.gov is the U.S. government's official web portal to all federal, state and local government web resources and services.